Coraopolis, PA

12:04 PM EST on February 20, 2017 (GMT -0500)
Pittsburgh International

Weather History for KPIT - February, 2014

Change the Weather History Date:

Sunday, February 23, 2014

  Actual Average Record
Temperature  
Mean Temperature 35 °F 33 °F  
Max Temperature 42 °F 41 °F 70 °F (1922)
Min Temperature 28 °F 24 °F -1 °F (1963)
Degree Days  
Heating Degree Days 30 32  
Month to date heating degree days 869 791  
Since 1 July heating degree days 4306 4100  
Cooling Degree Days 0 0  
Month to date cooling degree days 0 0  
Year to date cooling degree days 0 0  
Moisture  
Dew Point 26 °F    
Average Humidity 68    
Maximum Humidity 82    
Minimum Humidity 53    
Precipitation  
Precipitation T in 0.09 in 2.29 in (1975)
Month to date precipitation 2.22 1.96  
Year to date precipitation 4.40 4.66  
Snow  
Snow 0.00 in 0.40 in 6.50 in (1914)
Month to date snowfall 15.2 8.4  
Since 1 July snowfall 57.5 30.9  
Snow Depth 0.00 in    
Sea Level Pressure  
Sea Level Pressure 30.04 in    
Wind  
Wind Speed 5 mph (WNW)    
Max Wind Speed 21 mph    
Max Gust Speed 24 mph    
Visibility 10 miles    
Events      
T = Trace of Precipitation, MM = Missing Value Source: NWS Daily Summary

Daily Weather History Graph

Daily Weather History Graph

Search for Another Location

Airport or City:

Trip Planner

Search our weather history database for the weather conditions in past years. The results will help you decide how hot, cold, wet, or windy it might be!

Date:

Astronomy

Feb. 23, 2014 Rise Set
Actual Time 7:03 AM EST 6:05 PM EST
Civil Twilight 6:35 AM EST 6:33 PM EST
Nautical Twilight 6:04 AM EST 7:04 PM EST
Astronomical Twilight 5:32 AM EST 7:36 PM EST
Moon 2:00 AM EST (2/23) 12:05 PM EST (2/23)
Length of Visible Light 11h 57m
Length of Day
11h 02m
Last Quarter, 39% of the Moon is Illuminated
Feb 23
Last Quarter
Mar 1
New
Mar 8
First Quarter
Mar 16
Full
Mar 23
Last Quarter

Hourly Weather History & Observations

Time (EST) Temp. Windchill Dew Point Humidity Pressure Visibility Wind Dir Wind Speed Gust Speed Precip Events Conditions
12:51 AM 36.0 °F - 26.1 °F 67% 30.05 in 10.0 mi Calm Calm - N/A   Scattered Clouds
1:51 AM 34.0 °F - 26.1 °F 73% 30.06 in 10.0 mi Calm Calm - N/A   Mostly Cloudy
2:51 AM 33.1 °F - 26.1 °F 75% 30.06 in 10.0 mi Calm Calm - N/A   Mostly Cloudy
3:29 AM 32.0 °F - 24.8 °F 75% 30.01 in 10.0 mi Calm Calm - N/A   Overcast
3:51 AM 32.0 °F - 25.0 °F 75% 30.05 in 10.0 mi Calm Calm - N/A   Mostly Cloudy
4:24 AM 32.0 °F - 26.6 °F 80% 30.01 in 10.0 mi Calm Calm - N/A   Overcast
4:51 AM 32.0 °F - 26.1 °F 79% 30.06 in 10.0 mi Calm Calm - N/A   Overcast
5:51 AM 33.1 °F - 27.0 °F 78% 30.05 in 10.0 mi Calm Calm - N/A   Overcast
6:51 AM 33.1 °F - 27.0 °F 78% 30.04 in 10.0 mi Calm Calm - N/A   Overcast
7:51 AM 33.1 °F - 28.0 °F 82% 30.07 in 10.0 mi Calm Calm - N/A   Overcast
8:20 AM 33.8 °F - 28.4 °F 81% 30.02 in 10.0 mi Calm Calm - N/A   Overcast
8:51 AM 34.0 °F - 28.9 °F 82% 30.06 in 10.0 mi Calm Calm - N/A   Overcast
9:51 AM 37.9 °F - 30.0 °F 73% 30.06 in 10.0 mi Calm Calm - N/A   Overcast
10:51 AM 39.9 °F 36.7 °F 30.9 °F 70% 30.07 in 10.0 mi WNW 4.6 mph - N/A   Overcast
11:51 AM 42.1 °F 37.1 °F 30.0 °F 62% 30.05 in 10.0 mi WNW 8.1 mph - N/A   Overcast
12:51 PM 41.0 °F 35.8 °F 28.9 °F 62% 30.04 in 10.0 mi WNW 8.1 mph - N/A   Overcast
1:51 PM 42.1 °F 37.1 °F 28.9 °F 60% 30.01 in 10.0 mi WNW 8.1 mph - N/A   Overcast
2:51 PM 37.9 °F 31.5 °F 30.0 °F 73% 30.02 in 10.0 mi West 9.2 mph 17.3 mph 0.00 in   Overcast
3:51 PM 39.0 °F 34.0 °F 28.9 °F 67% 30.03 in 10.0 mi WSW 6.9 mph - N/A   Overcast
4:51 PM 39.0 °F 34.0 °F 28.9 °F 67% 30.03 in 10.0 mi West 6.9 mph - N/A   Overcast
5:51 PM 37.9 °F 30.9 °F 24.1 °F 57% 30.04 in 10.0 mi West 10.4 mph - N/A   Overcast
6:51 PM 37.0 °F 33.3 °F 24.1 °F 59% 30.04 in 10.0 mi West 4.6 mph - N/A   Overcast
7:51 PM 37.0 °F 32.4 °F 24.1 °F 59% 30.04 in 10.0 mi WSW 5.8 mph - N/A   Overcast
8:51 PM 34.0 °F 26.0 °F 19.9 °F 56% 30.04 in 10.0 mi WNW 10.4 mph - N/A   Partly Cloudy
9:51 PM 32.0 °F 23.0 °F 18.0 °F 56% 30.06 in 10.0 mi NW 11.5 mph - N/A   Partly Cloudy
10:51 PM 30.0 °F 17.9 °F 15.1 °F 54% 30.06 in 10.0 mi WNW 18.4 mph - N/A   Mostly Cloudy
11:51 PM 28.0 °F 17.0 °F 16.0 °F 61% 30.07 in 10.0 mi WNW 13.8 mph - N/A   Overcast